[[{"header":{"parameterUnit":"m.s-1","parameterCategory":1,"la1":30.2991,"la2":30.254,"lo1":-89.0895,"lo2":-89.0444,"dy":0.0017,"dx":0.0017,"nx":28,"ny":28,"refTime":"2025-05-16T09:00:00:Z","depth":0,"parameterNumber":2,"parameterNumberName":"U-component_of_WINDS"},"data":[0,0,0,0,0,0,0,0,0,0,0,0,0,0,0,0,0,0,0,0,0,0,0,0,0,0,0,0,0,0,0,0,0,0,0,0,0,0,0,0,0,0,0,0,0,0,0,0,0,0,0,0,0,0,0,0,0,0,0.7852,0.7852,0,0.7864,0.7864,0.7864,0.7849,0.7848,0.7848,0.7847,0.7861,0.7862,0.7863,0,0,0,0,0,0,0,0,0,0,0,0,0,0.7815,0.7816,0.7852,0.7852,0.7852,0.7864,0.7864,0.7864,0.7849,0.7848,0.7848,0.7847,0.7861,0.7862,0.7863,0,0,0,0,0,0,0,0,0,0,0,0,0,0.783,0.7816,0.7852,0.7846,0.7846,0.7864,0.7864,0.7864,0.7849,0.7848,0.7848,0.7847,0.786,0.7861,0.7863,0.7887,0,0,0.7867,0.7867,0,0,0,0,0,0,0,0,0.7829,0.7831,0.7847,0.7846,0.7846,0.7854,0.7856,0.7872,0.7849,0.7848,0.7847,0.7846,0.7859,0.7861,0.7865,0.7888,0.7889,0.7867,0.7868,0.7868,0.7869,0,0,0,0,0,0,0,0.7828,0.7831,0.7857,0.7847,0.7847,0.7843,0.7844,0.7859,0.7858,0.7848,0.7847,0.7848,0.7859,0.7864,0.7865,0.7889,0.7867,0.7868,0.7869,0.7869,0.7931,0.7932,0,0,0,0,0,0,0.7828,0.783,0.7856,0.7857,0.7835,0.7844,0.7845,0.7852,0.7858,0.7858,0.7849,0.7848,0.7862,0.7863,0.7865,0.7893,0.7868,0.7869,0.787,0.793,0.7931,0.7932,0,0,0,0,0,0,0.7827,0.783,0.7856,0.7843,0.7846,0.7845,0.7854,0.7853,0.7858,0.7859,0.7859,0.7854,0.7861,0.7864,0.7882,0.7894,0.787,0.7871,0.7929,0.7931,0.7932,0.795,0,0,0,0,0,0,0.7826,0.783,0.784,0.7843,0.7847,0.7872,0.7854,0.7854,0.786,0.7858,0.7863,0.7863,0.7861,0.788,0.7883,0.7895,0.7872,0.7928,0.793,0.7931,0.7949,0.7952,0.7955,0,0,0,0,0,0.7825,0.7845,0.784,0.7843,0.7859,0.7873,0.7875,0.7871,0.7861,0.787,0.7871,0.7863,0.7892,0.7882,0.7885,0.7898,0.7927,0.7929,0.7931,0.7947,0.7951,0.7955,0,0,0,0,0,0,0.7844,0.7846,0.784,0.7862,0.7867,0.787,0.7882,0.7875,0.7884,0.7882,0.7877,0.7878,0.7897,0.7899,0.7888,0.7921,0.7908,0.7911,0.7919,0.7923,0.7926,0.7925,0.7873,0,0,0,0,0,0.785,0.7861,0.7862,0.7882,0.7884,0.7883,0.7889,0.7885,0.789,0.7892,0.7894,0.79,0.791,0.7917,0.7926,0.7949,0.7949,0.7959,0.7962,0.7965,0.7967,0.7978,0.7982,0.7938,0.7938,0.7938,0,0,0.7864,0.7867,0.7874,0.7886,0.7889,0.79,0.7885,0.7898,0.7906,0.7895,0.7911,0.7913,0.7918,0.7938,0.7947,0.7941,0.7979,0.7967,0.797,0.797,0.798,0.7985,0.7988,0.794,0.794,0.7939,0,0,0.7895,0.7899,0.7914,0.7918,0.7923,0.7921,0.7925,0.7928,0.7928,0.7945,0.7936,0.7946,0.7964,0.7967,0.7972,0.8002,0.7995,0.8005,0.8022,0.8032,0.8036,0.8039,0.8049,0.8052,0.8008,0.8008,0.8008,0,0.7912,0.7929,0.7924,0.7936,0.7941,0.793,0.7946,0.7949,0.7958,0.7961,0.7953,0.7974,0.7977,0.7997,0.8004,0.8009,0.8012,0.8005,0.8036,0.8039,0.8042,0.8051,0.8055,0.8009,0.8009,0.8009,0.8008,0,0.7949,0.796,0.7972,0.7979,0.7985,0.7999,0.7996,0.8002,0.7998,0.7997,0.8013,0.8016,0.8025,0.803,0.8026,0.8049,0.8045,0.8037,0.8023,0.8047,0.8055,0.8059,0.801,0.801,0.801,0.8009,0,0,0.7993,0.7995,0.8,0.8002,0.8006,0.8014,0.8027,0.8036,0.8041,0.8047,0.8057,0.8071,0.8063,0.8068,0.8064,0.8074,0.8096,0.8064,0.8064,0.8069,0.812,0.8126,0.813,0.8091,0.8092,0.8093,0.8119,0,0.8023,0.8045,0.804,0.8062,0.8071,0.8061,0.8072,0.8075,0.8074,0.8082,0.8082,0.8091,0.8081,0.8083,0.8092,0.8092,0.8106,0.809,0.8101,0.8101,0.8099,0.8134,0.8141,0.8166,0.8123,0.8123,0.8124,0,0.8061,0.8067,0.809,0.809,0.8094,0.8104,0.811,0.8118,0.8121,0.812,0.8124,0.8118,0.8131,0.8117,0.8134,0.8123,0.8127,0.8127,0.8128,0.8129,0.8114,0.8135,0.8174,0.8177,0.8129,0.8129,0.8128,0,0.809,0.8103,0.8118,0.812,0.8122,0.8129,0.813,0.8132,0.8137,0.8142,0.8145,0.8152,0.8156,0.8161,0.8157,0.8148,0.8174,0.816,0.8173,0.8173,0.8179,0.8178,0.8217,0.8182,0.8182,0.8182,0.8182,0,0.8124,0.8138,0.813,0.8139,0.8154,0.8148,0.8163,0.8163,0.8164,0.8173,0.8164,0.8173,0.8167,0.8174,0.8171,0.8185,0.8187,0.8186,0.8185,0.8186,0.8186,0.8189,0.8186,0.8183,0.8183,0.8183,0.8183,0,0.8158,0.8154,0.8169,0.8168,0.8169,0.8179,0.8179,0.8187,0.8185,0.8196,0.8198,0.8195,0.8203,0.8199,0.8209,0.8206,0.8223,0.822,0.8222,0.8221,0.8233,0.8231,0.8275,0.8279,0.8242,0.8242,0.8243,0,0.8179,0.819,0.819,0.8194,0.8195,0.8203,0.8208,0.8201,0.8206,0.8209,0.8217,0.8224,0.823,0.8244,0.8242,0.8249,0.8245,0.826,0.8246,0.8247,0.8244,0.8243,0.8244,0.8263,0.8263,0.8263,0.8264,0,0.8217,0.8214,0.8221,0.8226,0.8231,0.8235,0.8238,0.8242,0.8236,0.8242,0.8249,0.8254,0.8262,0.8269,0.8274,0.8275,0.8268,0.8268,0.8271,0.8272,0.8272,0.8271,0.8229,0.8267,0.8267,0.8266,0.8266,0.8266,0.8245,0.8253,0.8254,0.8261,0.8262,0.8265,0.8272,0.827,0.8276,0.8282,0.8278,0.8287,0.8289,0.8295,0.8297,0.8303,0.8298,0.8302,0.8303,0.8304,0.8305,0.8272,0.8305,0.8305,0.8304,0.8304,0.8304,0,0.8282,0.8281,0.8288,0.8292,0.8297,0.8289,0.8292,0.8296,0.8304,0.8306,0.8311,0.8319,0.8326,0.8324,0.833,0.8336,0.8332,0.8337,0.8337,0.8337,0.8311,0.8307,0.834,0.834,0.834,0.834,0.834,0.834,0.8301,0.8314,0.8311,0.8323,0.8323,0.8331,0.8333,0.8335,0.8337,0.8346,0.8351,0.835,0.835,0.8355,0.8361,0.836,0.8362,0.8368,0.8366,0.8342,0.8339,0.8335,0.8332,0.8369,0.8369,0.8391,0.8391,0.8392]},{"header":{"parameterUnit":"m.s-1","parameterCategory":1,"la1":30.2991,"la2":30.254,"lo1":-89.0895,"lo2":-89.0444,"dy":0.0017,"dx":0.0017,"nx":28,"ny":28,"refTime":"2025-05-16T09:00:00:Z","depth":0,"parameterNumber":3,"parameterNumberName":"V-component_of_WINDS"},"data":[0,0,0,0,0,0,0,0,0,0,0,0,0,0,0,0,0,0,0,0,0,0,0,0,0,0,0,0,0,0,0,0,0,0,0,0,0,0,0,0,0,0,0,0,0,0,0,0,0,0,0,0,0,0,0,0,0,0,5.457,5.457,0,5.4573,5.4573,5.4573,5.4503,5.4501,5.4499,5.4497,5.45,5.4502,5.4503,0,0,0,0,0,0,0,0,0,0,0,0,0,5.4502,5.4504,5.457,5.457,5.457,5.4573,5.4573,5.4573,5.4503,5.4501,5.4499,5.4497,5.4499,5.4501,5.4503,0,0,0,0,0,0,0,0,0,0,0,0,0,5.4521,5.4504,5.457,5.4536,5.4533,5.4573,5.4573,5.4573,5.4504,5.4501,5.4498,5.4495,5.4498,5.4501,5.4504,5.4577,0,0,5.4512,5.4513,0,0,0,0,0,0,0,0,5.452,5.4524,5.4541,5.4538,5.4535,5.4535,5.455,5.4574,5.4504,5.4515,5.4497,5.4494,5.4514,5.4515,5.4522,5.4577,5.4577,5.4512,5.4514,5.4515,5.4516,0,0,0,0,0,0,0,5.4519,5.4523,5.4571,5.4541,5.4537,5.4519,5.4519,5.4554,5.453,5.4514,5.4508,5.451,5.4511,5.4519,5.4521,5.4577,5.4512,5.4515,5.4516,5.4517,5.469,5.4693,0,0,0,0,0,0,5.4522,5.4522,5.4571,5.4571,5.452,5.4523,5.4522,5.4537,5.4529,5.4525,5.4512,5.4507,5.4516,5.4518,5.4521,5.4605,5.4515,5.4518,5.4519,5.4687,5.4691,5.4694,0,0,0,0,0,0,5.4521,5.4527,5.4571,5.4545,5.4549,5.4527,5.4544,5.4539,5.4547,5.4528,5.4523,5.4525,5.4514,5.4517,5.4563,5.4604,5.4519,5.4521,5.4684,5.4688,5.4693,5.4774,0,0,0,0,0,0,5.452,5.4527,5.4555,5.4546,5.4551,5.4614,5.4547,5.4541,5.4552,5.4544,5.4539,5.4535,5.4512,5.4559,5.4566,5.4606,5.4523,5.468,5.4686,5.4691,5.4767,5.4781,5.4792,0,0,0,0,0,5.4517,5.4578,5.4557,5.4563,5.4586,5.4616,5.4619,5.4591,5.4555,5.4583,5.4571,5.4535,5.4598,5.4565,5.4571,5.4613,5.4677,5.4684,5.4691,5.4762,5.4778,5.4791,0,0,0,0,0,0,5.4593,5.4577,5.4553,5.4613,5.4617,5.4604,5.4638,5.4609,5.4622,5.4615,5.458,5.4579,5.463,5.4626,5.4589,5.4682,5.4631,5.464,5.4683,5.4698,5.471,5.471,5.4526,0,0,0,0,0,5.4617,5.4643,5.4627,5.4682,5.4684,5.4661,5.4673,5.4652,5.4654,5.4655,5.4646,5.4649,5.4669,5.4684,5.4701,5.4766,5.4764,5.4798,5.481,5.482,5.4828,5.4861,5.4876,5.4716,5.4716,5.4716,0,0,5.4666,5.466,5.4679,5.4697,5.4697,5.4724,5.4663,5.4695,5.4715,5.4659,5.4702,5.4696,5.4697,5.4752,5.4776,5.475,5.4871,5.4829,5.4837,5.4839,5.4869,5.4885,5.4898,5.4721,5.472,5.4719,0,0,5.477,5.4768,5.4813,5.4814,5.4815,5.4798,5.4809,5.4801,5.4795,5.4837,5.4796,5.4818,5.4854,5.4856,5.4862,5.4965,5.4933,5.4972,5.5035,5.5068,5.508,5.5091,5.5127,5.5141,5.4979,5.4979,5.498,0,5.4831,5.4871,5.484,5.4874,5.4882,5.4833,5.4877,5.488,5.4886,5.4893,5.4864,5.4907,5.4904,5.4959,5.4984,5.4991,5.5001,5.4972,5.5081,5.5092,5.5102,5.5136,5.5149,5.4984,5.4984,5.4983,5.4983,0,5.4945,5.4974,5.5009,5.5017,5.5029,5.5068,5.5042,5.5058,5.5035,5.5022,5.5065,5.5059,5.5075,5.5086,5.5064,5.5138,5.5121,5.5087,5.5035,5.5122,5.5153,5.5166,5.4991,5.4989,5.4988,5.4987,0,0,5.5098,5.5086,5.51,5.5102,5.5098,5.5119,5.5156,5.517,5.5184,5.519,5.5219,5.525,5.5218,5.5225,5.5202,5.5231,5.5312,5.5193,5.5193,5.5215,5.5392,5.5417,5.5433,5.529,5.5292,5.5294,5.5391,0,5.5198,5.526,5.5232,5.5297,5.5322,5.5274,5.5306,5.5307,5.5295,5.5314,5.5301,5.5323,5.528,5.5283,5.5309,5.5297,5.5347,5.5289,5.5317,5.5318,5.5318,5.5449,5.5477,5.5569,5.5404,5.5406,5.5407,0,5.5324,5.5334,5.5401,5.5391,5.5401,5.543,5.544,5.5459,5.5459,5.5448,5.5455,5.5425,5.546,5.5408,5.5454,5.5416,5.5425,5.5421,5.5423,5.5425,5.5368,5.5454,5.5597,5.5611,5.5426,5.5425,5.5423,0,5.5428,5.5458,5.5502,5.5505,5.5495,5.5516,5.5513,5.551,5.552,5.5529,5.5535,5.5548,5.5556,5.5566,5.5541,5.5506,5.5591,5.5537,5.5582,5.5583,5.5602,5.5602,5.5749,5.5609,5.5609,5.5609,5.5608,0,5.5542,5.5585,5.5548,5.5575,5.5621,5.5588,5.5634,5.5626,5.5623,5.5647,5.5607,5.563,5.5595,5.5615,5.5595,5.5636,5.564,5.5632,5.5626,5.5635,5.5636,5.5641,5.5634,5.5612,5.5611,5.5611,5.561,0,5.5667,5.5644,5.5688,5.5674,5.5672,5.5706,5.5694,5.5718,5.5703,5.5734,5.5739,5.5716,5.5737,5.5712,5.5731,5.5718,5.5773,5.5758,5.5774,5.5769,5.5816,5.5812,5.5972,5.5991,5.5839,5.584,5.5841,0,5.5742,5.5773,5.5762,5.5775,5.5774,5.5796,5.5806,5.5774,5.5786,5.5787,5.5811,5.5828,5.584,5.5876,5.5861,5.5875,5.5859,5.5914,5.5861,5.5869,5.586,5.5858,5.5861,5.5925,5.5927,5.5929,5.593,0,5.5877,5.5863,5.5879,5.5891,5.5903,5.5911,5.5916,5.5928,5.5895,5.591,5.5931,5.5941,5.5959,5.5977,5.5987,5.5983,5.5951,5.5947,5.5958,5.5968,5.5975,5.5971,5.5803,5.5943,5.5942,5.5941,5.594,5.594,5.5978,5.6003,5.5999,5.6018,5.6018,5.6023,5.6044,5.6031,5.6048,5.606,5.604,5.6066,5.6064,5.6073,5.6073,5.6092,5.6069,5.6085,5.6089,5.6094,5.61,5.5972,5.6094,5.6094,5.6093,5.6093,5.6092,0,5.611,5.6105,5.6122,5.6129,5.6144,5.6112,5.6115,5.6129,5.6152,5.6152,5.6165,5.6188,5.6205,5.619,5.6204,5.6222,5.6208,5.6227,5.6225,5.6224,5.6121,5.611,5.6238,5.6238,5.6238,5.6238,5.6238,5.6238,5.6181,5.6222,5.6208,5.6248,5.6242,5.6266,5.6271,5.6275,5.6274,5.6302,5.6316,5.6306,5.63,5.6312,5.6326,5.6321,5.6328,5.6352,5.6342,5.6246,5.6232,5.6218,5.6207,5.6354,5.6354,5.6444,5.6445,5.6445]}]]